#datetime,building,power
2024-02-14T00:01:00,pth,4.80
2024-02-14T00:03:00,pth,4.80
2024-02-14T00:04:00,pth,1.20
2024-02-14T00:06:00,pth,4.80
2024-02-14T00:08:00,pth,4.80
2024-02-14T00:10:00,pth,4.80
2024-02-14T00:12:00,pth,4.80
2024-02-14T00:14:00,pth,4.80
2024-02-14T00:16:00,pth,7.20
2024-02-14T00:19:00,pth,3.60
2024-02-14T00:21:00,pth,4.80
2024-02-14T00:23:00,pth,4.80
2024-02-14T00:25:00,pth,3.60
2024-02-14T00:27:00,pth,4.80
2024-02-14T00:28:00,pth,2.40
2024-02-14T00:30:00,pth,3.60
2024-02-14T00:31:00,pth,2.40
2024-02-14T00:33:00,pth,4.80
2024-02-14T00:34:00,pth,1.20
2024-02-14T00:36:00,pth,4.80
2024-02-14T00:42:00,pth,3.60
2024-02-14T00:43:00,pth,2.40
2024-02-14T00:44:00,pth,2.40
2024-02-14T00:46:00,pth,4.80
2024-02-14T00:48:00,pth,3.60
2024-02-14T00:49:00,pth,2.40
2024-02-14T00:50:00,pth,1.20
2024-02-14T00:52:00,pth,4.80
2024-02-14T00:54:00,pth,3.60
2024-02-14T00:56:00,pth,4.80
2024-02-14T00:58:00,pth,3.60
2024-02-14T01:00:00,pth,4.80
2024-02-14T01:02:00,pth,4.80
2024-02-14T01:04:00,pth,3.60
2024-02-14T01:05:00,pth,2.40
2024-02-14T01:07:00,pth,4.80
2024-02-14T01:08:00,pth,2.40
2024-02-14T01:09:00,pth,1.20
2024-02-14T01:10:00,pth,2.40
2024-02-14T01:12:00,pth,4.80
2024-02-14T01:13:00,pth,1.20
2024-02-14T01:15:00,pth,4.80
2024-02-14T01:16:00,pth,2.40
2024-02-14T01:18:00,pth,4.80
2024-02-14T01:19:00,pth,2.40
2024-02-14T01:20:00,pth,1.20
2024-02-14T01:22:00,pth,4.80
2024-02-14T01:23:00,pth,2.40
2024-02-14T01:25:00,pth,3.60
2024-02-14T01:26:00,pth,2.40
2024-02-14T01:27:00,pth,2.40
2024-02-14T01:29:00,pth,4.80
2024-02-14T01:30:00,pth,1.20
2024-02-14T01:31:00,pth,2.40
2024-02-14T01:33:00,pth,4.80
2024-02-14T01:35:00,pth,4.80
2024-02-14T01:37:00,pth,3.60
2024-02-14T01:38:00,pth,2.40
2024-02-14T01:40:00,pth,4.80
2024-02-14T01:42:00,pth,4.80
2024-02-14T01:43:00,pth,2.40
2024-02-14T01:45:00,pth,4.80
2024-02-14T01:46:00,pth,2.40
2024-02-14T01:48:00,pth,4.80
2024-02-14T01:50:00,pth,4.80
2024-02-14T01:52:00,pth,4.80
2024-02-14T01:54:00,pth,6.00
2024-02-14T01:55:00,pth,2.40
2024-02-14T01:57:00,pth,4.80
2024-02-14T01:58:00,pth,2.40
2024-02-14T02:00:00,pth,4.80
2024-02-14T02:01:00,pth,1.20
2024-02-14T02:03:00,pth,4.80
2024-02-14T02:04:00,pth,2.40
2024-02-14T02:05:00,pth,2.40
2024-02-14T02:07:00,pth,4.80
2024-02-14T02:09:00,pth,4.80
2024-02-14T02:10:00,pth,2.40
2024-02-14T02:12:00,pth,4.80
2024-02-14T02:13:00,pth,2.40
2024-02-14T02:15:00,pth,3.60
2024-02-14T02:17:00,pth,4.80
2024-02-14T02:18:00,pth,2.40
2024-02-14T02:20:00,pth,4.80
2024-02-14T02:21:00,pth,1.20
2024-02-14T02:23:00,pth,4.80
2024-02-14T02:24:00,pth,1.20
2024-02-14T02:26:00,pth,4.80
2024-02-14T02:28:00,pth,4.80
2024-02-14T02:29:00,pth,2.40
2024-02-14T02:31:00,pth,3.60
2024-02-14T02:32:00,pth,2.40
2024-02-14T02:33:00,pth,2.40
2024-02-14T02:35:00,pth,4.80
2024-02-14T02:37:00,pth,4.80
2024-02-14T02:38:00,pth,2.40
2024-02-14T02:39:00,pth,2.40
2024-02-14T02:41:00,pth,4.80
2024-02-14T02:42:00,pth,1.20
2024-02-14T02:44:00,pth,4.80
2024-02-14T02:46:00,pth,4.80
2024-02-14T02:47:00,pth,2.40
2024-02-14T02:49:00,pth,4.80
2024-02-14T02:50:00,pth,1.20
2024-02-14T02:52:00,pth,4.80
2024-02-14T02:53:00,pth,2.40
2024-02-14T02:55:00,pth,4.80
2024-02-14T02:56:00,pth,1.20
2024-02-14T02:58:00,pth,4.80
2024-02-14T03:00:00,pth,3.60
2024-02-14T03:02:00,pth,4.80
2024-02-14T03:03:00,pth,1.20
2024-02-14T03:05:00,pth,4.80
2024-02-14T03:06:00,pth,1.20
2024-02-14T03:08:00,pth,4.80
2024-02-14T03:09:00,pth,1.20
2024-02-14T03:11:00,pth,4.80
2024-02-14T03:12:00,pth,2.40
2024-02-14T03:13:00,pth,1.20
2024-02-14T03:15:00,pth,4.80
2024-02-14T03:17:00,pth,3.60
2024-02-14T03:18:00,pth,2.40
2024-02-14T03:20:00,pth,3.60
2024-02-14T03:22:00,pth,4.80
2024-02-14T03:23:00,pth,2.40
2024-02-14T03:24:00,pth,2.40
2024-02-14T03:26:00,pth,3.60
2024-02-14T03:28:00,pth,3.60
2024-02-14T03:30:00,pth,4.80
2024-02-14T03:31:00,pth,1.20
2024-02-14T03:33:00,pth,4.80
2024-02-14T03:34:00,pth,2.40
2024-02-14T03:36:00,pth,3.60
2024-02-14T03:37:00,pth,2.40
2024-02-14T03:39:00,pth,3.60
2024-02-14T03:40:00,pth,2.40
2024-02-14T03:42:00,pth,3.60
2024-02-14T03:44:00,pth,3.60
2024-02-14T03:45:00,pth,2.40
2024-02-14T03:47:00,pth,3.60
2024-02-14T03:49:00,pth,3.60
2024-02-14T03:51:00,pth,4.80
2024-02-14T03:52:00,pth,1.20
2024-02-14T03:54:00,pth,4.80
2024-02-14T03:55:00,pth,2.40
2024-02-14T03:57:00,pth,4.80
2024-02-14T03:59:00,pth,4.80
2024-02-14T04:01:00,pth,3.60
2024-02-14T04:02:00,pth,2.40
2024-02-14T04:04:00,pth,3.60
2024-02-14T04:06:00,pth,4.80
2024-02-14T04:07:00,pth,1.20
2024-02-14T04:08:00,pth,2.40
2024-02-14T04:10:00,pth,3.60
2024-02-14T04:11:00,pth,2.40
2024-02-14T04:12:00,pth,2.40
2024-02-14T04:14:00,pth,3.60
2024-02-14T04:15:00,pth,1.20
2024-02-14T04:17:00,pth,4.80
2024-02-14T04:18:00,pth,1.20
2024-02-14T04:19:00,pth,2.40
2024-02-14T04:21:00,pth,3.60
2024-02-14T04:22:00,pth,2.40
2024-02-14T04:24:00,pth,3.60
2024-02-14T04:25:00,pth,1.20
2024-02-14T04:27:00,pth,4.80
2024-02-14T04:29:00,pth,3.60
2024-02-14T04:31:00,pth,3.60
2024-02-14T04:32:00,pth,2.40
2024-02-14T04:34:00,pth,4.80
2024-02-14T04:36:00,pth,3.60
2024-02-14T04:38:00,pth,4.80
2024-02-14T04:39:00,pth,2.40
2024-02-14T04:40:00,pth,1.20
2024-02-14T04:42:00,pth,3.60
2024-02-14T04:43:00,pth,2.40
2024-02-14T04:45:00,pth,3.60
2024-02-14T04:46:00,pth,2.40
2024-02-14T04:48:00,pth,3.60
2024-02-14T04:49:00,pth,2.40
2024-02-14T04:51:00,pth,3.60
2024-02-14T04:52:00,pth,2.40
2024-02-14T04:54:00,pth,3.60
2024-02-14T04:55:00,pth,2.40
2024-02-14T04:57:00,pth,3.60
2024-02-14T04:58:00,pth,2.40
2024-02-14T04:59:00,pth,2.40
2024-02-14T05:01:00,pth,3.60
2024-02-14T05:02:00,pth,2.40
2024-02-14T05:04:00,pth,4.80
2024-02-14T05:06:00,pth,3.60
2024-02-14T05:07:00,pth,2.40
2024-02-14T05:09:00,pth,3.60
2024-02-14T05:11:00,pth,4.80
2024-02-14T05:13:00,pth,4.80
2024-02-14T05:14:00,pth,1.20
2024-02-14T05:15:00,pth,2.40
2024-02-14T05:17:00,pth,4.80
2024-02-14T05:18:00,pth,2.40
2024-02-14T05:19:00,pth,2.40
2024-02-14T05:21:00,pth,3.60
2024-02-14T05:23:00,pth,3.60
2024-02-14T05:25:00,pth,4.80
2024-02-14T05:26:00,pth,1.20
2024-02-14T05:28:00,pth,4.80
2024-02-14T05:29:00,pth,2.40
2024-02-14T05:31:00,pth,3.60
2024-02-14T05:33:00,pth,3.60
2024-02-14T05:35:00,pth,4.80
2024-02-14T05:36:00,pth,1.20
2024-02-14T05:38:00,pth,4.80
2024-02-14T05:40:00,pth,3.60
2024-02-14T05:41:00,pth,2.40
2024-02-14T05:43:00,pth,3.60
2024-02-14T05:45:00,pth,3.60
2024-02-14T05:47:00,pth,4.80
2024-02-14T05:48:00,pth,1.20
2024-02-14T05:50:00,pth,4.80
2024-02-14T05:52:00,pth,3.60
2024-02-14T05:53:00,pth,2.40
2024-02-14T05:55:00,pth,4.80
2024-02-14T05:57:00,pth,3.60
2024-02-14T05:58:00,pth,2.40
2024-02-14T06:00:00,pth,3.60
2024-02-14T06:02:00,pth,3.60
2024-02-14T06:03:00,pth,2.40
2024-02-14T06:05:00,pth,3.60
2024-02-14T06:06:00,pth,2.40
2024-02-14T06:08:00,pth,3.60
2024-02-14T06:10:00,pth,4.80
2024-02-14T06:12:00,pth,3.60
2024-02-14T06:14:00,pth,3.60
2024-02-14T06:16:00,pth,4.80
2024-02-14T06:17:00,pth,1.20
2024-02-14T06:18:00,pth,2.40
2024-02-14T06:20:00,pth,3.60
2024-02-14T06:22:00,pth,3.60
2024-02-14T06:23:00,pth,2.40
2024-02-14T06:25:00,pth,4.80
2024-02-14T06:26:00,pth,2.40
2024-02-14T06:28:00,pth,3.60
2024-02-14T06:30:00,pth,3.60
2024-02-14T06:32:00,pth,4.80
2024-02-14T06:33:00,pth,2.40
2024-02-14T06:34:00,pth,2.40
2024-02-14T06:36:00,pth,3.60
2024-02-14T06:38:00,pth,4.80
2024-02-14T06:39:00,pth,2.40
2024-02-14T06:41:00,pth,3.60
2024-02-14T06:43:00,pth,3.60
2024-02-14T06:45:00,pth,6.00
2024-02-14T06:47:00,pth,6.00
2024-02-14T06:49:00,pth,4.80
2024-02-14T06:51:00,pth,3.60
2024-02-14T06:52:00,pth,2.40
2024-02-14T06:53:00,pth,1.20
2024-02-14T06:55:00,pth,3.60
2024-02-14T06:57:00,pth,4.80
2024-02-14T06:58:00,pth,2.40
2024-02-14T07:00:00,pth,3.60
2024-02-14T07:02:00,pth,4.80
2024-02-14T07:03:00,pth,1.20
2024-02-14T07:05:00,pth,3.60
2024-02-14T07:07:00,pth,3.60
2024-02-14T07:08:00,pth,2.40
2024-02-14T07:10:00,pth,3.60
2024-02-14T07:12:00,pth,3.60
2024-02-14T07:14:00,pth,3.60
2024-02-14T07:16:00,pth,3.60
2024-02-14T07:17:00,pth,1.20
2024-02-14T07:19:00,pth,3.60
2024-02-14T07:21:00,pth,3.60
2024-02-14T07:23:00,pth,4.80
2024-02-14T07:24:00,pth,1.20
2024-02-14T07:26:00,pth,3.60
2024-02-14T07:27:00,pth,1.20
2024-02-14T07:28:00,pth,2.40
2024-02-14T07:30:00,pth,3.60
2024-02-14T07:31:00,pth,1.20
2024-02-14T07:33:00,pth,3.60
2024-02-14T07:34:00,pth,1.20
2024-02-14T07:36:00,pth,3.60
2024-02-14T07:37:00,pth,2.40
2024-02-14T07:39:00,pth,3.60
2024-02-14T07:41:00,pth,3.60
2024-02-14T07:43:00,pth,3.60
2024-02-14T07:44:00,pth,2.40
2024-02-14T07:45:00,pth,2.40
2024-02-14T07:47:00,pth,3.60
2024-02-14T07:49:00,pth,6.00
2024-02-14T07:51:00,pth,6.00
2024-02-14T07:53:00,pth,3.60
2024-02-14T07:54:00,pth,2.40
2024-02-14T07:55:00,pth,1.20
2024-02-14T07:57:00,pth,3.60
2024-02-14T07:59:00,pth,4.80
2024-02-14T08:01:00,pth,3.60
2024-02-14T08:03:00,pth,3.60
2024-02-14T08:05:00,pth,4.80
2024-02-14T08:07:00,pth,3.60
2024-02-14T08:09:00,pth,3.60
2024-02-14T08:10:00,pth,2.40
2024-02-14T08:12:00,pth,3.60
2024-02-14T08:13:00,pth,2.40
2024-02-14T08:15:00,pth,7.20
2024-02-14T08:16:00,pth,3.60
2024-02-14T08:18:00,pth,6.00
2024-02-14T08:20:00,pth,3.60
2024-02-14T08:21:00,pth,2.40
2024-02-14T08:23:00,pth,3.60
2024-02-14T08:25:00,pth,3.60
2024-02-14T08:27:00,pth,3.60
2024-02-14T08:28:00,pth,2.40
2024-02-14T08:29:00,pth,1.20
2024-02-14T08:31:00,pth,4.80
2024-02-14T08:32:00,pth,1.20
2024-02-14T08:34:00,pth,4.80
2024-02-14T08:36:00,pth,3.60
2024-02-14T08:38:00,pth,3.60
2024-02-14T08:39:00,pth,1.20
2024-02-14T08:41:00,pth,3.60
2024-02-14T08:42:00,pth,1.20
2024-02-14T08:43:00,pth,2.40
2024-02-14T08:45:00,pth,3.60
2024-02-14T08:46:00,pth,1.20
2024-02-14T08:47:00,pth,2.40
2024-02-14T08:49:00,pth,2.40
2024-02-14T08:50:00,pth,2.40
2024-02-14T08:52:00,pth,3.60
2024-02-14T08:54:00,pth,3.60
2024-02-14T08:56:00,pth,6.00
2024-02-14T08:58:00,pth,6.00
2024-02-14T09:00:00,pth,6.00
2024-02-14T09:01:00,pth,3.60
2024-02-14T09:02:00,pth,3.60
2024-02-14T09:03:00,pth,1.20
2024-02-14T09:05:00,pth,4.80
2024-02-14T09:06:00,pth,1.20
2024-02-14T09:07:00,pth,2.40
2024-02-14T09:09:00,pth,3.60
2024-02-14T09:10:00,pth,2.40
2024-02-14T09:12:00,pth,3.60
2024-02-14T09:13:00,pth,2.40
2024-02-14T09:15:00,pth,3.60
2024-02-14T09:17:00,pth,4.80
2024-02-14T09:18:00,pth,1.20
2024-02-14T09:19:00,pth,2.40
2024-02-14T09:20:00,pth,1.20
2024-02-14T09:22:00,pth,4.80
2024-02-14T09:23:00,pth,1.20
2024-02-14T09:25:00,pth,3.60
2024-02-14T09:27:00,pth,4.80
2024-02-14T09:29:00,pth,4.80
2024-02-14T09:31:00,pth,3.60
2024-02-14T09:33:00,pth,3.60
2024-02-14T09:34:00,pth,2.40
2024-02-14T09:36:00,pth,3.60
2024-02-14T09:37:00,pth,2.40
2024-02-14T09:39:00,pth,4.80
2024-02-14T09:41:00,pth,3.60
2024-02-14T09:42:00,pth,2.40
2024-02-14T09:44:00,pth,4.80
2024-02-14T09:46:00,pth,3.60
2024-02-14T09:48:00,pth,3.60
2024-02-14T09:49:00,pth,2.40
2024-02-14T09:51:00,pth,3.60
2024-02-14T09:52:00,pth,2.40
2024-02-14T09:54:00,pth,3.60
2024-02-14T09:56:00,pth,3.60
2024-02-14T09:57:00,pth,1.20
2024-02-14T09:58:00,pth,2.40
2024-02-14T10:00:00,pth,2.40
2024-02-14T10:02:00,pth,3.60
2024-02-14T10:03:00,pth,1.20
2024-02-14T10:05:00,pth,3.60
2024-02-14T10:07:00,pth,3.60
2024-02-14T10:09:00,pth,3.60
2024-02-14T10:10:00,pth,2.40
2024-02-14T10:11:00,pth,2.40
2024-02-14T10:12:00,pth,2.40
2024-02-14T10:14:00,pth,4.80
2024-02-14T10:15:00,pth,1.20
2024-02-14T10:17:00,pth,6.00
2024-02-14T10:18:00,pth,2.40
2024-02-14T10:20:00,pth,4.80
2024-02-14T10:22:00,pth,3.60
2024-02-14T10:23:00,pth,2.40
2024-02-14T10:25:00,pth,3.60
2024-02-14T10:27:00,pth,3.60
2024-02-14T10:29:00,pth,3.60
2024-02-14T10:31:00,pth,3.60
2024-02-14T10:32:00,pth,1.20
2024-02-14T10:33:00,pth,1.20
2024-02-14T10:34:00,pth,2.40
2024-02-14T10:36:00,pth,3.60
2024-02-14T10:38:00,pth,3.60
2024-02-14T10:39:00,pth,1.20
2024-02-14T10:41:00,pth,3.60
2024-02-14T10:43:00,pth,3.60
2024-02-14T10:45:00,pth,3.60
2024-02-14T10:47:00,pth,3.60
2024-02-14T10:48:00,pth,2.40
2024-02-14T10:50:00,pth,3.60
2024-02-14T10:52:00,pth,3.60
2024-02-14T10:53:00,pth,1.20
2024-02-14T10:55:00,pth,6.00
2024-02-14T10:56:00,pth,3.60
2024-02-14T10:57:00,pth,3.60
2024-02-14T10:59:00,pth,4.80
2024-02-14T11:01:00,pth,3.60
2024-02-14T11:03:00,pth,3.60
2024-02-14T11:05:00,pth,4.80
2024-02-14T11:07:00,pth,3.60
2024-02-14T11:08:00,pth,1.20
2024-02-14T11:10:00,pth,4.80
2024-02-14T11:12:00,pth,4.80
2024-02-14T11:14:00,pth,4.80
2024-02-14T11:16:00,pth,3.60
2024-02-14T11:17:00,pth,2.40
2024-02-14T11:19:00,pth,3.60
2024-02-14T11:21:00,pth,3.60
2024-02-14T11:23:00,pth,2.40
2024-02-14T11:25:00,pth,4.80
2024-02-14T11:26:00,pth,1.20
2024-02-14T11:27:00,pth,2.40
2024-02-14T11:28:00,pth,1.20
2024-02-14T11:29:00,pth,1.20
2024-02-14T11:31:00,pth,3.60
2024-02-14T11:33:00,pth,3.60
2024-02-14T11:34:00,pth,2.40
2024-02-14T11:36:00,pth,3.60
2024-02-14T11:38:00,pth,3.60
2024-02-14T11:40:00,pth,3.60
2024-02-14T11:42:00,pth,3.60
2024-02-14T11:43:00,pth,1.20
2024-02-14T11:45:00,pth,3.60
2024-02-14T11:47:00,pth,3.60
2024-02-14T11:48:00,pth,1.20
2024-02-14T11:50:00,pth,3.60
2024-02-14T11:51:00,pth,2.40
2024-02-14T11:53:00,pth,3.60
2024-02-14T11:54:00,pth,1.20
2024-02-14T11:55:00,pth,1.20
2024-02-14T11:57:00,pth,3.60
2024-02-14T11:59:00,pth,3.60
2024-02-14T12:00:00,pth,2.40
2024-02-14T12:02:00,pth,3.60
2024-02-14T12:03:00,pth,1.20
2024-02-14T12:05:00,pth,3.60
2024-02-14T12:07:00,pth,3.60
2024-02-14T12:08:00,pth,1.20
2024-02-14T12:10:00,pth,3.60
2024-02-14T12:12:00,pth,3.60
2024-02-14T12:13:00,pth,2.40
2024-02-14T12:15:00,pth,4.80
2024-02-14T12:16:00,pth,2.40
2024-02-14T12:18:00,pth,3.60
2024-02-14T12:20:00,pth,4.80
2024-02-14T12:21:00,pth,2.40
2024-02-14T12:23:00,pth,3.60
2024-02-14T12:25:00,pth,3.60
2024-02-14T12:27:00,pth,3.60
2024-02-14T12:28:00,pth,2.40
2024-02-14T12:30:00,pth,3.60
2024-02-14T12:31:00,pth,2.40
2024-02-14T12:33:00,pth,3.60
2024-02-14T12:35:00,pth,3.60
2024-02-14T12:37:00,pth,3.60
2024-02-14T12:39:00,pth,3.60
2024-02-14T12:40:00,pth,2.40
2024-02-14T12:42:00,pth,3.60
2024-02-14T12:43:00,pth,2.40
2024-02-14T12:45:00,pth,3.60
2024-02-14T12:47:00,pth,2.40
2024-02-14T12:49:00,pth,3.60
2024-02-14T12:51:00,pth,3.60
2024-02-14T12:53:00,pth,3.60
2024-02-14T12:55:00,pth,3.60
2024-02-14T12:56:00,pth,2.40
2024-02-14T12:58:00,pth,3.60
2024-02-14T13:00:00,pth,3.60
2024-02-14T13:02:00,pth,3.60
2024-02-14T13:04:00,pth,3.60
2024-02-14T13:06:00,pth,3.60
2024-02-14T13:08:00,pth,3.60
2024-02-14T13:09:00,pth,2.40
2024-02-14T13:11:00,pth,3.60
2024-02-14T13:13:00,pth,3.60
2024-02-14T13:15:00,pth,3.60
2024-02-14T13:17:00,pth,4.80
2024-02-14T13:18:00,pth,1.20
2024-02-14T13:20:00,pth,4.80
2024-02-14T13:22:00,pth,3.60
2024-02-14T13:23:00,pth,2.40
2024-02-14T13:24:00,pth,2.40
2024-02-14T13:26:00,pth,4.80
2024-02-14T13:27:00,pth,1.20
2024-02-14T13:28:00,pth,2.40
2024-02-14T13:29:00,pth,1.20
2024-02-14T13:31:00,pth,4.80
2024-02-14T13:33:00,pth,2.40
2024-02-14T13:34:00,pth,2.40
2024-02-14T13:36:00,pth,3.60
2024-02-14T13:37:00,pth,1.20
2024-02-14T13:39:00,pth,4.80
2024-02-14T13:40:00,pth,2.40
2024-02-14T13:42:00,pth,3.60
2024-02-14T13:44:00,pth,3.60
2024-02-14T13:45:00,pth,1.20
2024-02-14T13:47:00,pth,3.60
2024-02-14T13:48:00,pth,2.40
2024-02-14T13:50:00,pth,2.40
2024-02-14T13:52:00,pth,3.60
2024-02-14T13:53:00,pth,2.40
2024-02-14T13:55:00,pth,3.60
2024-02-14T13:57:00,pth,3.60
2024-02-14T13:59:00,pth,2.40
2024-02-14T14:00:00,pth,2.40
2024-02-14T14:01:00,pth,1.20
2024-02-14T14:03:00,pth,3.60
2024-02-14T14:05:00,pth,2.40
2024-02-14T14:06:00,pth,2.40
2024-02-14T14:08:00,pth,2.40
2024-02-14T14:10:00,pth,3.60
2024-02-14T14:12:00,pth,3.60
2024-02-14T14:13:00,pth,2.40
2024-02-14T14:14:00,pth,1.20
2024-02-14T14:16:00,pth,6.00
2024-02-14T14:17:00,pth,2.40
2024-02-14T14:19:00,pth,3.60
2024-02-14T14:21:00,pth,4.80
2024-02-14T14:23:00,pth,3.60
2024-02-14T14:25:00,pth,4.80
2024-02-14T14:26:00,pth,2.40
2024-02-14T14:28:00,pth,3.60
2024-02-14T14:29:00,pth,1.20
2024-02-14T14:30:00,pth,2.40
2024-02-14T14:32:00,pth,4.80
2024-02-14T14:34:00,pth,3.60
2024-02-14T14:35:00,pth,2.40
2024-02-14T14:37:00,pth,3.60
2024-02-14T14:39:00,pth,4.80
2024-02-14T14:41:00,pth,4.80
2024-02-14T14:43:00,pth,4.80
2024-02-14T14:45:00,pth,3.60
2024-02-14T14:46:00,pth,1.20
2024-02-14T14:48:00,pth,4.80
2024-02-14T14:50:00,pth,4.80
2024-02-14T14:52:00,pth,6.00
2024-02-14T14:53:00,pth,2.40
2024-02-14T14:54:00,pth,2.40
2024-02-14T14:56:00,pth,3.60
2024-02-14T14:57:00,pth,6.00
2024-02-14T14:59:00,pth,14.40
2024-02-14T15:00:00,pth,7.20
2024-02-14T15:02:00,pth,15.60
2024-02-14T15:04:00,pth,15.60
2024-02-14T15:06:00,pth,15.60
2024-02-14T15:08:00,pth,14.40
2024-02-14T15:09:00,pth,8.40
2024-02-14T15:11:00,pth,14.40
2024-02-14T15:12:00,pth,7.20
2024-02-14T15:13:00,pth,7.20
2024-02-14T15:15:00,pth,15.60
2024-02-14T15:17:00,pth,14.40
2024-02-14T15:19:00,pth,14.40
2024-02-14T15:20:00,pth,7.20
2024-02-14T15:22:00,pth,15.60
2024-02-14T15:24:00,pth,14.40
2024-02-14T15:26:00,pth,15.60
2024-02-14T15:27:00,pth,7.20
2024-02-14T15:29:00,pth,14.40
2024-02-14T15:31:00,pth,14.40
2024-02-14T15:33:00,pth,14.40
2024-02-14T15:34:00,pth,7.20
2024-02-14T15:36:00,pth,14.40
2024-02-14T15:38:00,pth,14.40
2024-02-14T15:39:00,pth,7.20
2024-02-14T15:41:00,pth,15.60
2024-02-14T15:42:00,pth,7.20
2024-02-14T15:44:00,pth,14.40
2024-02-14T15:45:00,pth,7.20
2024-02-14T15:47:00,pth,15.60
2024-02-14T15:48:00,pth,8.40
2024-02-14T15:50:00,pth,14.40
2024-02-14T15:51:00,pth,8.40
2024-02-14T15:53:00,pth,14.40
2024-02-14T15:54:00,pth,7.20
2024-02-14T15:56:00,pth,12.00
2024-02-14T15:58:00,pth,6.00
2024-02-14T15:59:00,pth,7.20
2024-02-14T16:01:00,pth,15.60
2024-02-14T16:03:00,pth,15.60
2024-02-14T16:05:00,pth,14.40
2024-02-14T16:06:00,pth,7.20
2024-02-14T16:08:00,pth,15.60
2024-02-14T16:10:00,pth,15.60
2024-02-14T16:12:00,pth,15.60
2024-02-14T16:13:00,pth,7.20
2024-02-14T16:14:00,pth,8.40
2024-02-14T16:16:00,pth,14.40
2024-02-14T16:18:00,pth,14.40
2024-02-14T16:19:00,pth,2.40
2024-02-14T16:21:00,pth,9.60
2024-02-14T16:23:00,pth,15.60
2024-02-14T16:24:00,pth,8.40
2024-02-14T16:26:00,pth,15.60
2024-02-14T16:28:00,pth,9.60
2024-02-14T16:29:00,pth,2.40
2024-02-14T16:31:00,pth,10.80
2024-02-14T16:33:00,pth,15.60
2024-02-14T16:34:00,pth,8.40
2024-02-14T16:36:00,pth,13.20
2024-02-14T16:37:00,pth,3.60
2024-02-14T16:39:00,pth,8.40
2024-02-14T16:40:00,pth,7.20
2024-02-14T16:42:00,pth,15.60
2024-02-14T16:44:00,pth,14.40
2024-02-14T16:45:00,pth,1.20
2024-02-14T16:47:00,pth,9.60
2024-02-14T16:48:00,pth,7.20
2024-02-14T16:50:00,pth,14.40
2024-02-14T16:51:00,pth,8.40
2024-02-14T16:52:00,pth,7.20
2024-02-14T16:53:00,pth,2.40
2024-02-14T16:55:00,pth,6.00
2024-02-14T16:57:00,pth,14.40
2024-02-14T16:59:00,pth,3.60
2024-02-14T17:01:00,pth,4.80
2024-02-14T17:02:00,pth,1.20
2024-02-14T17:03:00,pth,2.40
2024-02-14T17:04:00,pth,1.20
2024-02-14T17:06:00,pth,4.80
2024-02-14T17:07:00,pth,2.40
2024-02-14T17:09:00,pth,3.60
2024-02-14T17:11:00,pth,4.80
2024-02-14T17:12:00,pth,2.40
2024-02-14T17:14:00,pth,3.60
2024-02-14T17:16:00,pth,3.60
2024-02-14T17:17:00,pth,1.20
2024-02-14T17:19:00,pth,4.80
2024-02-14T17:21:00,pth,4.80
2024-02-14T17:23:00,pth,3.60
2024-02-14T17:25:00,pth,4.80
2024-02-14T17:27:00,pth,3.60
2024-02-14T17:28:00,pth,2.40
2024-02-14T17:30:00,pth,4.80
2024-02-14T17:31:00,pth,2.40
2024-02-14T17:33:00,pth,3.60
2024-02-14T17:35:00,pth,4.80
2024-02-14T17:36:00,pth,2.40
2024-02-14T17:37:00,pth,2.40
2024-02-14T17:39:00,pth,4.80
2024-02-14T17:40:00,pth,8.40
2024-02-14T17:42:00,pth,15.60
2024-02-14T17:43:00,pth,8.40
2024-02-14T17:44:00,pth,7.20
2024-02-14T17:46:00,pth,15.60
2024-02-14T17:48:00,pth,15.60
2024-02-14T17:50:00,pth,15.60
2024-02-14T17:51:00,pth,8.40
2024-02-14T17:53:00,pth,15.60
2024-02-14T17:54:00,pth,7.20
2024-02-14T17:56:00,pth,15.60
2024-02-14T17:58:00,pth,15.60
2024-02-14T18:00:00,pth,15.60
2024-02-14T18:02:00,pth,15.60
2024-02-14T18:03:00,pth,8.40
2024-02-14T18:05:00,pth,15.60
2024-02-14T18:06:00,pth,7.20
2024-02-14T18:07:00,pth,8.40
2024-02-14T18:09:00,pth,15.60
2024-02-14T18:11:00,pth,16.80
2024-02-14T18:13:00,pth,15.60
2024-02-14T18:15:00,pth,15.60
2024-02-14T18:17:00,pth,15.60
2024-02-14T18:19:00,pth,15.60
2024-02-14T18:21:00,pth,15.60
2024-02-14T18:22:00,pth,8.40
2024-02-14T18:23:00,pth,7.20
2024-02-14T18:25:00,pth,15.60
2024-02-14T18:27:00,pth,16.80
2024-02-14T18:28:00,pth,7.20
2024-02-14T18:29:00,pth,8.40
2024-02-14T18:31:00,pth,18.00
2024-02-14T18:33:00,pth,16.80
2024-02-14T18:35:00,pth,16.80
2024-02-14T18:37:00,pth,15.60
2024-02-14T18:38:00,pth,7.20
2024-02-14T18:39:00,pth,2.40
2024-02-14T18:41:00,pth,13.20
2024-02-14T18:42:00,pth,7.20
2024-02-14T18:44:00,pth,15.60
2024-02-14T18:46:00,pth,16.80
2024-02-14T18:47:00,pth,7.20
2024-02-14T18:49:00,pth,15.60
2024-02-14T18:51:00,pth,15.60
2024-02-14T18:53:00,pth,15.60
2024-02-14T18:54:00,pth,8.40
2024-02-14T18:55:00,pth,7.20
2024-02-14T18:57:00,pth,16.80
2024-02-14T18:59:00,pth,8.40
2024-02-14T19:01:00,pth,16.80
2024-02-14T19:03:00,pth,16.80
2024-02-14T19:04:00,pth,8.40
2024-02-14T19:06:00,pth,16.80
2024-02-14T19:08:00,pth,8.40
2024-02-14T19:09:00,pth,7.20
2024-02-14T19:10:00,pth,8.40
2024-02-14T19:12:00,pth,15.60
2024-02-14T19:14:00,pth,16.80
2024-02-14T19:15:00,pth,3.60
2024-02-14T19:16:00,pth,4.80
2024-02-14T19:18:00,pth,19.20
2024-02-14T19:20:00,pth,20.40
2024-02-14T19:22:00,pth,15.60
2024-02-14T19:24:00,pth,16.80
2024-02-14T19:25:00,pth,9.60
2024-02-14T19:27:00,pth,20.40
2024-02-14T19:29:00,pth,13.20
2024-02-14T19:31:00,pth,13.20
2024-02-14T19:32:00,pth,8.40
2024-02-14T19:34:00,pth,15.60
2024-02-14T19:35:00,pth,8.40
2024-02-14T19:37:00,pth,7.20
2024-02-14T19:40:00,pth,21.60
2024-02-14T19:41:00,pth,3.60
2024-02-14T19:42:00,pth,2.40
2024-02-14T19:44:00,pth,4.80
2024-02-14T19:46:00,pth,6.00
2024-02-14T19:48:00,pth,4.80
2024-02-14T19:50:00,pth,6.00
2024-02-14T19:52:00,pth,4.80
2024-02-14T19:54:00,pth,9.60
2024-02-14T19:56:00,pth,10.80
2024-02-14T19:57:00,pth,4.80
2024-02-14T19:59:00,pth,10.80
2024-02-14T20:01:00,pth,10.80
2024-02-14T20:02:00,pth,6.00
2024-02-14T20:04:00,pth,9.60
2024-02-14T20:06:00,pth,10.80
2024-02-14T20:07:00,pth,4.80
2024-02-14T20:09:00,pth,9.60
2024-02-14T20:11:00,pth,10.80
2024-02-14T20:12:00,pth,4.80
2024-02-14T20:14:00,pth,9.60
2024-02-14T20:16:00,pth,7.20
2024-02-14T20:18:00,pth,7.20
2024-02-14T20:20:00,pth,10.80
2024-02-14T20:21:00,pth,7.20
2024-02-14T20:23:00,pth,10.80
2024-02-14T20:25:00,pth,13.20
2024-02-14T20:27:00,pth,9.60
2024-02-14T20:28:00,pth,8.40
2024-02-14T20:30:00,pth,15.60
2024-02-14T20:32:00,pth,12.00
2024-02-14T20:34:00,pth,10.80
2024-02-14T20:35:00,pth,6.00
2024-02-14T20:37:00,pth,12.00
2024-02-14T20:39:00,pth,15.60
2024-02-14T20:41:00,pth,14.40
2024-02-14T20:43:00,pth,12.00
2024-02-14T20:45:00,pth,12.00
2024-02-14T20:46:00,pth,4.80
2024-02-14T20:48:00,pth,9.60
2024-02-14T20:50:00,pth,7.20
2024-02-14T20:51:00,pth,3.60
2024-02-14T20:53:00,pth,4.80
2024-02-14T20:54:00,pth,3.60
2024-02-14T20:56:00,pth,4.80
2024-02-14T20:57:00,pth,2.40
2024-02-14T20:59:00,pth,4.80
2024-02-14T21:01:00,pth,3.60
2024-02-14T21:02:00,pth,2.40
2024-02-14T21:04:00,pth,4.80
2024-02-14T21:05:00,pth,2.40
2024-02-14T21:07:00,pth,4.80
2024-02-14T21:08:00,pth,2.40
2024-02-14T21:10:00,pth,4.80
2024-02-14T21:12:00,pth,4.80
2024-02-14T21:13:00,pth,2.40
2024-02-14T21:15:00,pth,3.60
2024-02-14T21:17:00,pth,4.80
2024-02-14T21:19:00,pth,4.80
2024-02-14T21:21:00,pth,3.60
2024-02-14T21:22:00,pth,2.40
2024-02-14T21:24:00,pth,4.80
2024-02-14T21:25:00,pth,2.40
2024-02-14T21:27:00,pth,6.00
2024-02-14T21:28:00,pth,1.20
2024-02-14T21:30:00,pth,4.80
2024-02-14T21:32:00,pth,4.80
2024-02-14T21:33:00,pth,2.40
2024-02-14T21:35:00,pth,4.80
2024-02-14T21:37:00,pth,3.60
2024-02-14T21:39:00,pth,6.00
2024-02-14T21:41:00,pth,4.80
2024-02-14T21:43:00,pth,4.80
2024-02-14T21:44:00,pth,3.60
2024-02-14T21:46:00,pth,4.80
2024-02-14T21:47:00,pth,2.40
2024-02-14T21:48:00,pth,3.60
2024-02-14T21:50:00,pth,4.80
2024-02-14T21:52:00,pth,6.00
2024-02-14T21:54:00,pth,6.00
2024-02-14T21:56:00,pth,6.00
2024-02-14T21:57:00,pth,2.40
2024-02-14T21:58:00,pth,3.60
2024-02-14T22:00:00,pth,6.00
2024-02-14T22:02:00,pth,4.80
2024-02-14T22:04:00,pth,7.20
2024-02-14T22:06:00,pth,6.00
2024-02-14T22:08:00,pth,6.00
2024-02-14T22:10:00,pth,4.80
2024-02-14T22:11:00,pth,2.40
2024-02-14T22:13:00,pth,6.00
2024-02-14T22:15:00,pth,6.00
2024-02-14T22:17:00,pth,6.00
2024-02-14T22:18:00,pth,3.60
2024-02-14T22:19:00,pth,2.40
2024-02-14T22:21:00,pth,7.20
2024-02-14T22:23:00,pth,4.80
2024-02-14T22:25:00,pth,15.60